Погода в Бресте

Погода в Бресте : погода сейчас, прогноз погоды и архив. Всё, что Вы хотите узнать о погоде в Бресте!

Поиск расширенной информации на нашем сайте:

Полезная информация:

Другие новости

Новости СМИ2

Главная страница сайта

Новости сайта

03.07.2017

Напоминаем, что на нашем специализированном сайте Метеоцентр.Азия вы можете получить высокодетализированные автоматические прогнозы погоды по пунктам России, СНГ и мира в авиационном формате (включающие направление и скорость ветра, видимость, явления погоды, количество и форму облачности, нижнюю и верхнюю границу облачности).

Рекомендуем:

Погода в Бресте - сегодня

Время (UTC), дата Ветер
(°,м/с) 
Видим.   Явления Облачность Т
(°С)
Тd
(°С)
f(%) Тe
(°С)
Pmin
(гПа)
dP
(гПа)
Po
(мм)
O2
(г/м3)
Тmin Tmax R s Состояние
почвы
12 15.07.19 050 (СВ) 30000 м    8/8 1000 м кучево-дожд. 
[Cb calv]
+21.1 +9 46 +21  1012.1  -0.3  746  278           
15 15.07.19 090 (В) 30000 м  {ливн. осадки}  9/9 1000 м кучево-дожд. 
[Cb calv]
+20.4 +9.6 50 +21  1011.8  -0.4  746  278      0.1     
18 15.07.19 180 (Ю) 30000 м  {ливн. осадки}  6/3 1000 м средняя, верхняя 
[Sc diur, vesp|Ac trans|Ci fib]
+20 +11.2 57 +23  1011.5  -0.3  746  278    +23.8  0.1     
21 15.07.19 080 (В) 30000 м    3/0 средняя 
[Ac trans]
+15.4 +12 80 +20  1012.4  0.6  746  282           
00 16.07.19 тихо ()   20000 м    3/0 верхняя 
[Ci sp]
+11.8 +11 95 +14  1012  -0.6  746  286           
03 16.07.19 250 (З) 20000 м    1/0 средняя 
[Ac trans]
+10.2 +9 92 +11  1011.6  -0.5  746  288           
06 16.07.19 250 (З) 20000 м    4/3 1000 м верхняя 
[Cu med, cong|Ci fib]
+18.3 +10.4 60 +21  1010.6  -0.5  745  280  +10.1         
09 16.07.19 260 (З) 30000 м    8/4 1000 м верхняя 
[Cu med, cong|Ci fib]
+23.6 +6.8 34 +24  1008.7  -1.5  744  275           
12 16.07.19 270 (З) 5{11}  30000 м    8/5 600 м кучево-дожд., средняя 
[Cb calv|Ac trans]
+21.8 +12.1 54 +26  1008.1  -0.7  744  275           
15 16.07.19 260 (З) 5{11}  30000 м  {ливн. осадки}  9/8 1000 м средняя 
[Cu Sc|Ac trans]
+18.8 +8.2 50 +19  1009.1  0.8  744  279      0.1     
18 16.07.19 270 (З) 30000 м  {ливн. осадки}  9/0 средняя 
[Ac trans]
+16.8 +8.7 59 +17  1009.5  0.2  744  281    +24  0.1     
21 16.07.19 250 (З) 30000 м    9/9 1500 м 
[Sc]
+15.6 +10.4 71 +18  1009.3  -0.2  744  282           
00 17.07.19 260 (З) 30000 м    9/9 2000 м 
[Sc]
+13.3 +11.9 91 +17  1009.6  0.1  744  284           
03 17.07.19 280 (З) 20000 м  {ливн. осадки}  8/0 средняя 
[Ac trans]
+12.4 +11.4 94 +16  1008.9  -0.8  744  284      0.0     
06 17.07.19 340 (С) 10 км  слаб. ливневой дождь  10/10 600 м кучево-дожд. 
[Cb cap]
+13.8 +12.5 92 +19  1008.6  -0.2  743  283  +12.3    0.0     
09 17.07.19 340 (С) 30000 м  в посл. час ливневой дождь{гроза}  8/4 600 м кучево-дожд., средняя 
[Cb calv|Ac trans]
+14.2 +12.1 87 +19  1008.6  0.1  744  282      15     
12 17.07.19 280 (З) 30000 м  слаб. ливневой дождь{гроза}  9/9 600 м кучево-дожд. 
[Cb cap]
+18.1 +12.1 68 +23  1008.3  -0.1  743  279      0.0     
15 17.07.19 320 (СЗ) 30000 м  в посл. час ливневой дождь  9/8 600 м кучево-дожд., верхняя 
[Cb calv|Ci fib]
+15.5 +13.7 89 +23  1009.3  0.8  744  281      19     
18 17.07.19 330 (СЗ) 30000 м  слаб. ливневой дождь  9/9 600 м кучево-дожд. 
[Cb cap]
+16.7 +13.2 80 +23  1009.9  0.7  745  280    +18.8  19     
21 17.07.19 270 (З) 30000 м  {ливн. осадки}  8/0 средняя 
[Ac trans]
+13.6 +12.3 92 +18  1011  0.9  745  284      0.5     
00 18.07.19 300 (СЗ) 30000 м  в посл. час ливневой дождь  9/4 600 м кучево-дожд., средняя 
[Cb calv|Ac trans]
+13.4 +11.9 91 +18  1011  745  284      0.0     
03 18.07.19 290 (З) 30000 м    8/8 750 м 
[Sc]
+12.3 +11.3 94 +16  1011.6  0.5  746  285      0.5     
06 18.07.19 290 (З) 30000 м    10/10 540 м 
[Sc]
+14.2 +12.9 92 +19  1012.2  0.7  746  283  +12.3    0.5     
09 18.07.19 300 (СЗ) 30000 м    10/10 800 м 
[Sc]
+16.5 +12.7 78 +22  1013.2  1.1  747  281           
12 18.07.19 310 (СЗ) 30000 м    8/8 1230 м 
[Sc]
+19.4 +12.2 63 +24  1013  747  279           
Время (UTC), дата Ветер
(°,м/с) 
Видим.   Явления Облачность Т
(°С)
Тd
(°С)
f(%) Тe
(°С)
Pmin
(гПа)
dP
(гПа)
Po
(мм)
O2
(г/м3)
Тmin Tmax R s Состояние
почвы

Для получения пояснительной информации подведите курсор к названию столбца.

ПОГОДА в Бресте - архив

Всё, что Вы хотите узнать о погоде в Бресте - удобно и подробно!

Выберите нужную дату (начиная с 1 января 2018* года) и нажмите кнопку "Найти".
Будут отображены архивные сводки погоды по пункту Брест, начиная с указанной даты.


Отображать данные в формате CSV (для использования в таблицах Excel)


Внимание! Наш архив погоды предназначен исключительно для личного некоммерческого использования в познавательных целях. Если Вам необходимы официальные справки о состоянии погоды (для производственных, юридических, коммерческих и т.п. целей), обращайтесь в органы Росгидромета.

*Примечание: данная дата относится к архиву по метеостанциям СССР (Россия, СНГ, Балтия).
Архив по метеостанциям Зарубежной Европы и Азии (кроме Китая) хранится 10 дней, по другим регионам земного шара (Китай, Африка, Америка, Австралия, Океания) - 1 день.

Брест - район местоположения метеостанции


Название, широта, долгота, высота метеостанции:
Брест 52.1°ш. 23.7°д. 146 м над ур. моря [Беларусь]

Дополнительная информация

В oтличие oт бoльшинства пoгoдных сайтoв мы публикуем пoдрoбную метеoинфoрмацию в детальнoм прoфессиoнальнoм фoрмате.

Характеристики температуры и влажнoсти вoздуха измеряются на высoте 2 м в тени вдали oт зданий и деревьев.
Скoрoсть ветра измеряется на высoте 10 м (на урoвне рoста челoвека скoрoсть ветра ниже в 1.5-2 раза). Если метеoстанция нахoдится в гoрoде или в лесу, тo скoрoсть ветра занижена на 2-4 м/с пo сравнению с oткрытым местoм. Скoрoсть ветра над акватoриями крупных рек и oзёр, а также на вершинах хoлмoв на 2-5 м/с выше, чем в oбычных услoвиях.
Атмoсфернoе давление в разных тoчках местнoсти мoжет значительнo oтличаться oт давления на метеoстанции, в зависимoсти oт услoвий рельефа (при пoдъёме на 10 м давление пoнижается примернo на 1 мм рт.ст.).